Tracking 31028 objects as of 17-Jul-2025
HD Live streaming from Space Station
objects crossing your sky now

FENGYUN 1C DEB

Track FENGYUN 1C DEB now!
10-day predictions


NORAD ID: 32088
Int'l Code: 1999-025CQE
Perigee: 829.1 km
Apogee: 1,520.5 km
Inclination: 102.4 °
Period: 108.7 minutes
Semi major axis: 7545 km
RCS: 0.0006 m2 (small)
Launch date: May 10, 1999
Source: People's Republic of China (PRC)
Launch site: Taiyaun Space Center, China (TSC)

Note: This is SATELLITE DEBRIS
Your satellite tracking list
Your tracking list is empty




NASA's NSSDC Master Catalog

Two Line Element Set (TLE):
1 32088U 99025CQE 25197.80174783  .00001454  00000-0  20103-2 0  9990
2 32088 102.4010  35.1094 0458145 317.1118  39.5099 13.24475453578724
Source of the keplerian elements: AFSPC